Flag for United Kingdom Weather past 2 weeks in Aylesbury, England, United Kingdom

Now
42 °F

Quite cool.


Feels Like: 37 °F
Forecast: 39 / 52 °F
Wind: 8 mph from West

Location: High Wicombe Hqstc

Current Time: Dec 21, 2014 at 9:37:28 AM

Latest Report: Dec 21, 2014 at 8:00 AM


Visibility: 4 mi

Pressure: 30.36 "Hg

Humidity: 99%

Dew point: 42 °F

Location of AylesburyLocation

Historic Weather in Aylesbury — Graph

°F

Aylesbury temperature yesterday

Maximum temperature yesterday: 46 °F (at 2:00 PM)
Minimum temperature yesterday: 40 °F (at 2:00 AM)
Average temperature yesterday: 43 °F

Past Weeks' High & Low Weather Summary

 TemperatureHumidityPressure
High54 °F (Dec 18, 1:00 PM)100% (Dec 9, 7:00 PM)30.46 "Hg (Dec 9, 7:00 PM)
Low29 °F (Dec 6, 8:00 AM)60% (Dec 7, 3:00 PM)29.23 "Hg (Dec 12, 5:00 AM)
Average42 °F86%29.97 "Hg
* Reported Dec 6 8:00 AM — Dec 21 8:00 AM, Aylesbury, Weather by CustomWeather, © 2014

Note: Actual official high and low records may vary slightly from our data, if they occured in-between our weather recording intervals... More about our weather records

Advertising

Aylesbury weather history for previous 24 hours

 ConditionsComfort  
Time TempWeatherWind HumidityBarometerVisibility
8:00 AM
Dec 21
42 °FQuite cool.8 mph99%30.36 "Hg4 mi
7:00 AM42 °FRain showers. Overcast.8 mph99%30.36 "Hg3 mi
6:00 AM41 °FDrizzle. Overcast.6 mph98%30.38 "Hg2 mi
5:00 AM41 °FQuite cool.7 mph98%30.40 "Hg4 mi
4:00 AM40 °FQuite cool.7 mph97%30.42 "Hg2 mi
3:00 AM40 °FChilly.8 mph93%30.44 "Hg6 mi
2:00 AM39 °FChilly.6 mph88%30.44 "Hg18 mi
1:00 AM41 °FQuite cool.5 mph83%30.46 "Hg22 mi
12:00 AM42 °FQuite cool.6 mph82%30.45 "Hg28 mi
11:00 PM
Dec 20
41 °FQuite cool.8 mph84%30.45 "Hg19 mi
10:00 PM42 °FQuite cool.8 mph81%30.45 "Hg18 mi
8:00 PM41 °FQuite cool.8 mph82%30.44 "Hg19 mi
7:00 PM43 °FQuite cool.8 mph77%30.42 "Hg18 mi
6:00 PM43 °FQuite cool.10 mph77%30.40 "Hg22 mi
5:00 PM44 °FQuite cool.9 mph76%30.38 "Hg25 mi
4:00 PM44 °FQuite cool.9 mph74%30.35 "Hg25 mi
3:00 PM46 °FCool.12 mph69%30.32 "Hg25 mi
2:00 PM46 °FCool.14 mph68%30.30 "Hg25 mi
1:00 PM46 °FCool.16 mph70%30.29 "Hg19 mi
12:00 PM46 °FCool.14 mph71%30.28 "Hg19 mi
11:00 AM45 °FQuite cool.10 mph72%30.29 "Hg25 mi
10:00 AM43 °FQuite cool.10 mph75%30.28 "Hg25 mi
9:00 AM43 °FQuite cool.9 mph76%30.26 "Hg28 mi
Weather by CustomWeather, © 2014

See weather overviewHow to use our weather pages